Regional Weather Roundup
Issued by NWS

Home | Current Version | Previous Version | Text Only | Print | Product List | Glossary On
Versions: 1 2 3 4 5 6 7 8 9 10 11 12 13 14 15 16 17 18 19 20 21 22 23 24 25 26 27 28 29 30 31 32 33 34 35 36 37 38 39 40 41 42 43 44 45 46 47 48 49 50
000
ASUS42 KTBW 190010
RWRFL
FLORIDA REGIONAL WEATHER ROUNDUP
NATIONAL WEATHER SERVICE TAMPA BAY RUSKIN FL
800 PM EDT THU SEP 18 2014

NOTE: "FAIR" INDICATES FEW OR NO CLOUDS BELOW 12,000 FEET WITH NO
SIGNIFICANT WEATHER AND/OR OBSTRUCTIONS TO VISIBILITY.


FLZ001>010-012>015-112-114-115-190100-
PANHANDLE FLORIDA

CITY           SKY/WX    TMP DP  RH WIND       PRES   REMARKS
PENSACOLA      CLOUDY    78  73  84 CALM      29.90R
PENSACOLA NAS  CLOUDY    79  75  87 NW6       29.90R
MILTON NAS     CLOUDY    79  73  82 W5        29.91R
CRESTVIEW      MOCLDY    82  73  74 S5        29.92R
DUKE FIELD     MOCLDY    82  80  93 W2        29.91R
VALPARAISO     MOCLDY    82  74  77 W2        29.91R
MARY ESTHER    CLOUDY    82  70  67 CALM      29.90R
TRI COUNTY     FAIR      74  73  97 CALM      29.92R
PANAMA CITY    MOCLDY    79  72  79 CALM      29.90R
TYNDALL AFB    CLOUDY    80  76  85 CALM      29.90S
APALACHICOLA   CLOUDY    80  71  74 N5        29.90S

STATION/POSITION SKY/WX   TEMP    WIND        PRES    WAVE   SWELL
                          AIR SEA DIR/SP/G            HT/PER HT/PER
                          (F)     (DEG/KT/KT) (MB)    (FT/S) (FT/S)
30.1N   87.6W              83 86  250/  2/  2 1012.6R   1
PANAMA CITY BEAC           84 87  240/  4/  5 1012.5R
CAPE SAN BLAS    NOT AVBL
TOWER C                    82     240/  3/  4 1012.4F
28.5N   84.5W              83 86   CALM  /  2 1012.3F   1

$$
FLZ011-016>038-118-127-128-134-139-239-190100-
NORTH FLORIDA

CITY           SKY/WX    TMP DP  RH WIND       PRES   REMARKS
MARIANNA       PTCLDY    79  69  71 NE3       29.91R
TALLAHASSEE    MOCLDY    83  66  56 S3        29.91R
PERRY          PTCLDY    79  72  78 CALM      29.91R
CROSS CITY       N/A     80  74  81 SW3       29.89F
LAKE CITY      FAIR      79  70  73 CALM      29.90S
GAINESVILLE    CLOUDY    82  72  71 NW3       29.90R
MAYPORT NAS    CLOUDY    82  74  76 SE8       29.91R
JACKSONVILLE   CLOUDY    79  75  87 E6        29.90R
JAX NAS        CLOUDY    85  74  69 E7        29.91R
JAX CRAIG      CLOUDY    81  74  79 SE5       29.91R
JAX CECIL      CLEAR     77  72  83 CALM      29.90R
ST AUGUSTINE   MOCLDY    82  73  74 SE10      29.92R

STATION/POSITION SKY/WX   TEMP    WIND        PRES    WAVE   SWELL
                          AIR SEA DIR/SP/G            HT/PER HT/PER
                          (F)     (DEG/KT/KT) (MB)    (FT/S) (FT/S)
SHELL POINT                84     200/  7/  9   N/A
KEATON BEACH               83     160/  2/  3 1012.7R
CEDAR KEY                  83     310/  4/  6 1012.6F
FERNANDINA                 81 84  120/  3/  5 1012.2F
30.7N   81.3W                 85                N/A     2/13   2/13
MAYPORT                    82 84  120/  5/  8   N/A
31.4N   80.9W              81 85  140/  6/  8 1013.4R   2/12   2/12
ST AUGUSTINE               82     130/ 12/ 13 1013.6R

$$
FLZ040-043>046-052-053-057-058-063-144-190100-
INTERIOR CENTRAL FLORIDA

CITY           SKY/WX    TMP DP  RH WIND       PRES   REMARKS
OCALA          MOCLDY    81  66  61 E3        29.91R
THE VILLAGES     N/A     77  72  83 CALM      29.82R HAZE
LEESBURG       MOCLDY    80  75  84 CALM      29.92R
SANFORD        MOCLDY    80  71  74 E7        29.90S
ORLANDO EXEC   MOCLDY    78  75  90 CALM      29.90S
ORLANDO INTL   LGT RAIN  75  72  90 SE3       29.90F
KISSIMMEE      MOCLDY    75  75 100 E5        29.90R
WINTER HAVEN   MOCLDY    84  70  62 NE14      29.90R
LAKELAND       PTCLDY    82  72  69 CALM      29.89R
BARTOW         FAIR      79  73  83 E3        29.89S
OKEECHOBEE     PTCLDY    79  70  73 MISG      29.90R

$$
FLZ041-047-054-059-064-141-147-190100-
EAST CENTRAL FLORIDA

CITY           SKY/WX    TMP DP  RH WIND       PRES   REMARKS
DAYTONA BEACH  MOCLDY    81  71  71 E3        29.92R
DELAND         MOCLDY    79  72  78 E5        29.93R
NEW SMYRNA BEA PTCLDY    82  72  69 E8        29.91R
JFK SPACE CTR  MOCLDY    80  73  81 E5        29.90R
TITUSVILLE     MOCLDY    82  72  69 E9        29.90R
CAPE CANAVERAL MOCLDY    79  73  80 E5        29.90R
PATRICK AFB    MOCLDY    82  74  75 E13       29.90R
MELBOURNE      MOCLDY    84  73  69 E9        29.90R
VERO BEACH     CLEAR     78  68  71 E5        29.90R
FT PIERCE      CLEAR     80  72  76 CALM      29.90R

STATION/POSITION SKY/WX   TEMP    WIND        PRES    WAVE   SWELL
                          AIR SEA DIR/SP/G            HT/PER HT/PER
                          (F)     (DEG/KT/KT) (MB)    (FT/S) (FT/S)
28.5N   80.2W              82 86   80/ 10/ 12 1012.6R
28.9N   78.5W              83 85   50/  8/ 10 1013.1S   3/11   3/11
TRIDENT PIER               81 85   70/  6/  7 1012.0S
28.4N   80.5W                 85                N/A     2/13   2/13
27.6N   80.2W                 84                N/A     3/13   2/13

$$
FLZ050-056-061-142-242-148-248-149-249-151-251-155-255-
160-260-190100-
WEST CENTRAL FLORIDA

CITY           SKY/WX    TMP DP  RH WIND       PRES   REMARKS
CRYSTAL RIVER  FAIR      81  72  74 CALM      29.89S
INVERNESS      FAIR      77  61  57 CALM      29.91R
BROOKSVILLE    MOCLDY    81  73  76 N7        29.90S
ZEPHYRHILLS    FAIR      81  72  74 NW5       29.90R
CLEARWATER     PTCLDY    82  72  71 NW7       29.89R
TAMPA INTL     MOCLDY    83  72  69 NW8       29.89R
TAMPA EXEC     MOCLDY    82  72  69 N5        29.90R
PLANT CITY     MOCLDY    84  75  74 NW8       29.91R
MACDILL AFB    MOCLDY    82  76  82 N8        29.89R
ST PETERSBURG  PTCLDY    84  73  69 N8        29.87R
SARASOTA       MOCLDY    80  74  81 NW6       29.87S
VENICE           N/A    N/A N/A N/A MISG        N/A

STATION/POSITION SKY/WX   TEMP    WIND        PRES    WAVE   SWELL
                          AIR SEA DIR/SP/G            HT/PER HT/PER
                          (F)     (DEG/KT/KT) (MB)    (FT/S) (FT/S)
CEDAR KEY                  83     310/  4/  6 1012.6F
28.5N   84.5W              83 86   CALM  /  2 1012.3F   1
27.3N   84.3W                 86                N/A     1/ 3
CLEARWATER BEACH NOT AVBL
MIDDLE TAMPA BAY           84     340/ 12/ 14 1012.1R
VENICE                     83 87  310/  7/  9 1011.6R

$$
FLZ066-069-070-075>078-162-262-165-265-190100-
SOUTHWEST FLORIDA AND KEYS

CITY           SKY/WX    TMP DP  RH WIND       PRES   REMARKS
PUNTA GORDA    PTCLDY    83  72  69 W7        29.90R
FT MYERS       PTCLDY    80  72  76 SW6       29.88R
SOUTHWEST INTL PTCLDY    79  67  66 SW6       29.88S
NAPLES         PTCLDY    83  75  77 SW3       29.88R
MARCO ISLAND   CLOUDY    81  73  78 SW5       29.89R
MARATHON       CLOUDY    80  76  87 CALM      29.91R
KEY WEST NAS   LGT RAIN  81  74  79 NW8       29.92R
KEY WEST INTL  CLOUDY    81  74  79 N3        29.92R

STATION/POSITION SKY/WX   TEMP    WIND        PRES    WAVE   SWELL
                          AIR SEA DIR/SP/G            HT/PER HT/PER
                          (F)     (DEG/KT/KT) (MB)    (FT/S) (FT/S)
VENICE                     83 87  310/  7/  9 1011.6R
NAPLES                     83 89  250/  6/  7 1012.5R
DRY TORTUGAS               82     280/  5/  6 1012.9R
NW FL BAY                  83     220/  6/  7 1012.3R
SAND KEY                   82     280/  8/  9 1012.7R
SOMBRERO KEY               82     260/  4/  5 1013.6R
LONG KEY                   82 87  240/  6/  7 1013.6R
MOLASSES REEF              81 85  230/  4/  5 1012.9R

$$
FLZ067-068-071>074-168-172>174-190100-
SOUTHEAST FLORIDA

CITY           SKY/WX    TMP DP  RH WIND       PRES   REMARKS
W PALM BEACH   RAIN      77  75  93 N8        29.90R
FT LAUDER-EXEC TSTM      78  76  93 W8        29.90R
FT LAUDERDALE  TSTM      78  75  90 W15       29.90R FOG
POMPANO BEACH  CLOUDY    81  75  82 CALM      29.90R
PEMBROKE PINES CLOUDY    79  73  82 NW9       29.91R
OPA LOCKA      CLOUDY    79  74  84 SW8       29.89S
MIAMI          MOCLDY    83  73  72 CALM      29.90R
WEST KENDALL   CLOUDY    83  73  72 S5        29.90R
HOMESTEAD      PTCLDY    79  74  84 S3        29.91R

STATION/POSITION SKY/WX   TEMP    WIND        PRES    WAVE   SWELL
                          AIR SEA DIR/SP/G            HT/PER HT/PER
                          (F)     (DEG/KT/KT) (MB)    (FT/S) (FT/S)
PORT EVERGLADES            81     200/  6/  9 1012.2
VIRGINIA KEY               83 86  210/  8/  9   N/A
LAKE WORTH                 79 85   70/  5/  7 1012.3S
FOWEY ROCKS                83 85  220/ 11/ 13 1013.0R
SETTLEMENT POINT           82     230/  3/  4 1013.4R

$$



USA.gov is the U.S. government's official web portal to all federal, state and local government web resources and services.